User: anonymous   Login
Location: Unspecified
(0.0000°N, 0.0000°E)
Time: 01:09:20
(UTC+00:00)
Language:

GALILEO 8 (264) - Orbit

View from above orbital plane
View from above orbital plane
View from above satellite
View from above satellite

Ground track
Ground track

The orbit data is extracted from the following two-line orbital elements,

1 40545U 15017B   17293.89234875 -.00000043  00000-0  00000+0 0  9997
2 40545  55.7207  68.4798 0002988 159.7242 200.2612  1.70475665 15971
Epoch (UTC): 20 October 2017 21:24:58
Eccentricity: 0.0002988
inclination: 55.7207°
perigee height: 23213 km
apogee height: 23230 km
right ascension of ascending node: 68.4798°
argument of perigee: 159.7242°
revolutions per day: 1.70475665
mean anomaly at epoch: 200.2612°
orbit number at epoch: 1597

The dashed part of the orbit path shows where the satellite is in the earth's shadow,  

DLR